This demonstration page uses our WeatherBlox Daily Observations layout. Learn more.

Hourly Observations for April 30, 2017

Temp ( °F °C ) Dew Point ( °F °C ) Humidity (%) Winds ( mph kmh ) Pressure ( in mb ) Visibility ( mi km ) Precip ( " mm )
12:15 am 00:15 Windy with Snow Likely 34 1.3 32 0 91 91 NNE 28 44 30.06 1018 3 4.82802 0.03 0.762
12:35 am 00:35 Windy with Snow Likely 33 0.8 32 0 94 94 NNE 25 41 30.06 1018 4 6.43736 0.06 1.524
12:55 am 00:55 Windy with Snow Likely 34 1 32 0 93 93 NNE 22 35 30.06 1018 5 8.0467 0.08 2.032
1:15 am 01:15 Cloudy with Light Rain 34 1.3 33 0.5 94 94 NNE 24 39 30.03 1017 10 16.0934 0 0
1:35 am 01:35 Windy with Snow Likely 35 1.5 33 0.5 93 93 NNE 22 35 30.03 1017 5 8.0467 0.01 0.254
1:55 am 01:55 Windy with Snow Likely 34 1.1 32 0.1 93 93 NNE 23 37 30 1016 5 8.0467 0.04 1.016
2:15 am 02:15 Windy with Snow Likely 34 1.1 32 0.2 94 94 NNE 22 35 29.97 1015 5 8.0467 0.01 0.254
2:35 am 02:35 Windy with Snow Likely 34 1.3 33 0.4 94 94 NNE 23 37 29.97 1015 5 8.0467 0.02 0.508
2:55 am 02:55 Cloudy with Light Rain 35 1.5 33 0.5 93 93 NNE 28 44 29.97 1015 7 11.26538 0.03 0.762
3:15 am 03:15 Cloudy with Light Rain 35 1.6 33 0.5 93 93 NNE 28 44 29.91 1013 10 16.0934 0.01 0.254
3:35 am 03:35 Windy with Snow Likely 35 1.4 33 0.4 93 93 NNE 25 41 29.91 1013 5 8.0467 0.01 0.254
3:55 am 03:55 Windy with Snow Likely 34 1 32 0 93 93 NNE 28 44 29.88 1012 3 4.82802 0.03 0.762
4:15 am 04:15 Windy with Snow Likely 33 0.8 32 0 94 94 NNE 26 43 29.91 1013 2 3.21868 0.01 0.254
4:35 am 04:35 Windy with Snow Likely 33 0.8 32 0.1 95 95 NNE 25 41 29.85 1011 2 3.21868 0.02 0.508
4:55 am 04:55 Cloudy with Snow 33 0.5 32 0 96 96 NNE 25 41 29.88 1012 1 1.60934 0.04 1.016
5:15 am 05:15 Windy with Snow Likely 33 0.5 32 0 96 96 N 24 39 29.88 1012 1.75 2.816345 0.01 0.254
5:35 am 05:35 Windy with Snow Likely 33 0.6 32 0 96 96 N 25 41 29.88 1012 5 8.0467 0.06 1.524
5:55 am 05:55 Cloudy with Light Rain 33 0.7 32 0 95 95 NNE 30 48 29.88 1012 4 6.43736 0.09 2.286
6:15 am 06:15 Windy with Snow Likely 33 0.6 32 0 96 96 N 29 46 29.88 1012 1.75 2.816345 0.01 0.254
6:35 am 06:35 Windy with Snow Likely 33 0.5 32 0 96 96 N 29 46 29.8 1009 1.75 2.816345 0.05 1.27
6:55 am 06:55 Windy with Snow Likely 33 0.7 32 0.1 96 96 NNE 33 54 29.83 1010 2.5 4.02335 0.14 3.556
7:15 am 07:15 Windy with Snow Likely 33 0.7 32 0.1 96 96 N 32 52 29.77 1008 7 11.26538 0.01 0.254
7:35 am 07:35 Windy with Snow Likely 33 0.6 32 0 96 96 N 31 50 29.77 1008 3 4.82802 0.04 1.016
7:55 am 07:55 Cloudy with Light Rain 33 0.7 32 0.1 96 96 N 36 57 29.74 1007 5 8.0467 0.05 1.27
8:15 am 08:15 Cloudy with Light Rain 33 0.7 32 0.2 97 97 NNE 36 57 29.77 1008 2.5 4.02335 0 0
8:35 am 08:35 Very Windy with Snow Likely 33 0.7 32 0.1 96 96 NNE 38 61 29.74 1007 1.75 2.816345 0.02 0.508
8:55 am 08:55 Cloudy with Light Wintry Mix 33 0.8 33 0.3 97 97 NNE 38 61 29.71 1006 3 4.82802 0.02 0.508
9:15 am 09:15 Cloudy with Light Rain 33 0.8 33 0.3 97 97 N 41 67 29.68 1005 5 8.0467 0.01 0.254
9:35 am 09:35 Windy with Storms Likely 34 1 33 0.3 95 95 NNE 26 43 29.77 1008 7 11.26538 0.01 0.254
9:55 am 09:55 Cloudy with Light Rain 34 1.1 33 0.5 96 96 NNE 29 46 29.8 1009 10 16.0934 0.01 0.254
10:15 am 10:15 Windy with Snow Likely 33 0.8 32 0.2 96 96 NNE 35 56 29.77 1008 1.25 2.011675 0.04 1.016
10:35 am 10:35 Windy with Snow Likely 33 0.6 32 0 96 96 NNE 23 37 29.77 1008 1.25 2.011675 0.07 1.778
10:55 am 10:55 Windy with Snow Likely 33 0.5 32 0 96 96 N 24 39 29.77 1008 1 1.60934 0.09 2.286
11:15 am 11:15 Windy with Snow Likely 33 0.5 32 0 96 96 N 22 35 29.77 1008 0.75 1.207005 0.03 0.762
11:35 am 11:35 Cloudy with Light Wintry Mix 33 0.5 32 0 96 96 N 20 31 29.8 1009 1.25 2.011675 0.08 2.032
11:55 am 11:55 Cloudy with Light Snow 33 0.5 32 0 96 96 N 18 30 29.77 1008 1 1.60934 0.12 3.048
12:15 pm 12:15 Cloudy with Light Snow 33 0.5 32 0 96 96 N 18 30 29.77 1008 1 1.60934 0.03 0.762
12:35 pm 12:35 Windy with Snow Likely 33 0.5 32 0 96 96 N 20 31 29.77 1008 0.75 1.207005 0.08 2.032
12:55 pm 12:55 Cloudy with Snow 33 0.5 32 0 96 96 N 21 33 29.77 1008 0.5 0.80467 0.12 3.048
1:15 pm 13:15 Windy with Snow Likely 33 0.6 32 0.1 97 97 N 20 31 29.74 1007 0.75 1.207005 0.04 1.016
1:35 pm 13:35 Cloudy with Light Snow 33 0.5 32 0 96 96 N 17 28 29.74 1007 0.75 1.207005 0.06 1.524
1:55 pm 13:55 Cloudy with Snow 33 0.6 32 0 96 96 N 18 30 29.71 1006 0.5 0.80467 0.07 1.778
2:15 pm 14:15 Windy with Snow Likely 33 0.6 32 0 96 96 N 23 37 29.74 1007 0.5 0.80467 0.04 1.016
2:35 pm 14:35 Windy with Snow Likely 33 0.8 32 0.1 95 95 N 21 33 29.71 1006 1 1.60934 0.05 1.27
2:55 pm 14:55 Windy with Snow Likely 33 0.8 32 0 94 94 N 21 33 29.74 1007 1.5 2.41401 0.05 1.27
3:15 pm 15:15 Cloudy with Light Rain 34 1 32 0 93 93 N 20 31 29.74 1007 4 6.43736 0 0
3:35 pm 15:35 Cloudy with Light Rain 34 1 32 0 93 93 N 21 33 29.74 1007 5 8.0467 0 0
3:55 pm 15:55 Cloudy with Light Drizzle 34 1.2 32 0.1 92 92 N 25 41 29.71 1006 10 16.0934 0.01 0.254
4:15 pm 16:15 Cloudy with Light Drizzle 34 1.1 32 0 92 92 N 21 33 29.71 1006 10 16.0934 0 0
4:35 pm 16:35 Cloudy with Light Drizzle 34 1.1 32 0 92 92 N 22 35 29.71 1006 10 16.0934 0 0
4:55 pm 16:55 Cloudy with Light Drizzle 34 1.1 32 0 92 92 N 20 31 29.71 1006 10 16.0934 0 0
5:15 pm 17:15 Windy with Snow Likely 34 1.1 32 0 92 92 N 21 33 29.71 1006 10 16.0934 0 0
5:35 pm 17:35 Cloudy with Light Rain 34 1.1 32 0 92 92 N 21 33 29.71 1006 10 16.0934 0 0
5:55 pm 17:55 Windy with Snow Likely 34 0.9 32 0 94 94 N 22 35 29.71 1006 5 8.0467 0 0
6:15 pm 18:15 Windy with Snow Likely 34 0.9 32 0 94 94 N 22 35 29.71 1006 2 3.21868 0 0
6:35 pm 18:35 Windy with Snow Likely 33 0.8 32 0 94 94 N 22 35 29.74 1007 1.5 2.41401 0.01 0.254
7:15 pm 19:15 Windy with Snow Likely 33 0.7 32 0 95 95 NNW 21 33 29.74 1007 3 4.82802 0 0
7:35 pm 19:35 Windy with Snow Likely 33 0.6 32 0 96 96 NNW 20 31 29.71 1006 1.25 2.011675 0 0
7:55 pm 19:55 Windy with Snow Likely 33 0.5 32 0 96 96 N 22 35 29.71 1006 1.25 2.011675 0.01 0.254
8:15 pm 20:15 Windy with Snow Likely 33 0.5 32 0 96 96 NNW 20 31 29.74 1007 1.5 2.41401 0 0
8:35 pm 20:35 Windy with Snow Likely 33 0.6 32 0 96 96 N 21 33 29.74 1007 3 4.82802 0.01 0.254
8:55 pm 20:55 Windy with Snow Likely 33 0.6 32 0 96 96 NNW 21 33 29.74 1007 3 4.82802 0.02 0.508
9:15 pm 21:15 Windy with Snow Likely 33 0.6 32 0 96 96 NNW 22 35 29.74 1007 3 4.82802 0 0
9:35 pm 21:35 Cloudy with Light Snow 33 0.6 32 0 96 96 N 18 30 29.74 1007 3 4.82802 0 0
9:55 pm 21:55 Cloudy with Light Rain 33 0.7 32 0 95 95 N 18 30 29.74 1007 10 16.0934 0 0
10:15 pm 22:15 Cloudy with Light Rain 33 0.8 32 0.1 95 95 N 20 31 29.74 1007 10 16.0934 0 0
10:35 pm 22:35 Cloudy with Light Rain 33 0.8 32 0 94 94 N 20 31 29.74 1007 10 16.0934 0 0
10:55 pm 22:55 Cloudy with Light Rain 33 0.8 32 0 94 94 N 22 35 29.74 1007 10 16.0934 0 0
11:15 pm 23:15 Cloudy 33 0.8 32 0 94 94 N 23 37 29.74 1007 10 16.0934 0 0
11:35 pm 23:35 Cloudy 34 1 32 0 93 93 NNW 16 26 29.74 1007 10 16.0934 0 0
11:55 pm 23:55 Cloudy 34 0.9 32 0 94 94 NNW 22 35 29.71 1006 10 16.0934 0 0

Powered by AerisWeather